SCP
0 0 0 0 0 0 0 0 0 0 0 0 0 0 0 0 0 0 0 0 0 0 0 0 0 0 0 0 0 0 0 0 0 0 0 0 0 0 0 0 0 0 0
0 0 0 0 0 0 0 0 0 0 0 0 0 0 0 0 0 0 0 0 0 0 0 0 0 0 0 0 0 0 0 0 0 0 0 0 0 0 0 0 0 0 0
0 0 0 0 0 0 0 0 0 0 0 0 0 0 0 0 0 0 0 0 0 0 0 0 0 0 0 0 0 0 0 0 0 0 0 0 0 0 0 0 0 0 0
0 0 0 0 0 0 0 0 0 0 0 0 0 0 0 0 0 0 0 0 0 0 0 0 0 0 0 0 0 0 0 0 0 0 0 0 0 0 0 0 0 0 0
0 0 0 0 0 0 0 0 0 0 0 0 0 0 0 0 0 0 0 0 0 0 0 0 0 0 0 0 0 0 0 0 0 0 0 0 0 0 0 0 0 0 0
0 0 0 0 0 0 0 0 0 0 0 0 0 0 0 0 0 0 0 0 0 0 0 0 0 0 0 0 0 0 0 0 0 0 0 0 0 0 0 0 0 0 0
0 0 0 0 0 0 0 0 0 0 0 0 0 0 0 0 0 0 0 0 0 0 0 0 0 0 0 0 0 0 0 0 0 0 0 0 0 0 0 0 0 0 0
0 0 0 0 0 0 0 0 0 0 0 0 0 0 0 0 0 0 0 0 0 0 0 0 0 0 0 0 0 0 0 0 0 0 0 0 0 0 0 0 0 0 0
0 0 0 0 0 0 0 0 0 0 0 0 0 0 0 0 0 0 0 0 0 0 0 0 0 0 0 0 0 0 0 0 0 0 0 0 0 0 0 0 0 0 0
0 0 0 0 0 0 0 0 0 0 0 0 0 0 0 0 0 0 0 0 0 0 0 0 0 0 0 0 0 0 0 0 0 0 0 0 0 0 0 0 0 0 0
0 0 0 0 0 0 0 0 0 0 0 0 0 0 0 0 0 0 0 0 0 0 0 0 0 0 0 0 0 0 0 0 0 0 0 0 0 0 0 0 0 0 0
0 0 0 0 0 0 0 0 0 0 0 0 0 0 0 0 0 0 0 0 0 0 0 0 0 0 0 0 0 0 0 0 0 0 0 0 0 0 0 0 0 0 0
0 0 0 0 0 0 0 0 0 0 0 0 0 0 0 0 0 0 0 0 0 0 0 0 0 0 0 0 0 0 0 0 0 0 0 0 0 0 0 0 0 0 0
0 0 0 0 0 0 0 0 0 0 0 0 0 0 0 0 0 0 0 0 0 0 0 0 0 0 0 0 0 0 0 0 0 0 0 0 0 0 0 0 0 0 0
0 0 0 0 0 0 0 0 0 0 0 0 0 0 0 0 0 0 0 0 0 0 0 0 0 0 0 0 0 0 0 0 0 0 0 0 0 0 0 0 0 0 0
0 0 0 0 0 0 0 0 0 0 0 0 0 0 0 0 0 0 0 0 0 0 0 0 0 0 0 0 0 0 0 0 0 0 0 0 0 0 0 0 0 0 0
0 0 0 0 0 0 0 0 0 0 0 0 0 0 0 0 0 0 0 0 0 0 0 0 0 0 0 0 0 0 0 0 0 0 0 0 0 0 0 0 0 0 0
0 0 0 0 0 0 0 0 0 0 0 0 0 0 0 0 0 0 0 0 0 0 0 0 0 0 0 0 0 0 0 0 0 0 0 0 0 0 0 0 0 0 0
0 0 0 0 0 0 0 0 0 0 0 0 0 0 0 0 0 0 0 0 0 0 0 0 0 0 0 0 0 0 0 0 0 0 0 0 0 0 0 0 0 0 0
0 0 0 0 0 0 0 0 0 0 0 0 0 0 0 0 0 0 0 0 0 0 0 0 0 0 0 0 0 0 0 0 0 0 0 0 0 0 0 0 0 0 0
0 0 0 0 0 0 0 0 0 0 0 0 0 0 0 0 0 0 0 0 0 0 0 0 0 0 0 0 0 0 0 0 0 0 0 0 0 0 0 0 0 0 0
0 0 0 0 0 0 0 0 0 0 0 0 0 0 0 0 0 0 0 0 0 0 0 0 0 0 0 0 0 0 0 0 0 0 0 0 0 0 0 0 0 0 0
0 0 0 0 0 0 0 0 0 0 0 0 0 0 0 0 0 0 0 0 0 0 0 0 0 0 0 0 0 0 0 0 0 0 0 0 0 0 0 0 0 0 0
0 0 0 0 0 0 0 0 0 0 0 0 0 0 0 0 0 0 0 0 0 0 0 0 0 0 0 0 0 0 0 0 0 0 0 0 0 0 0 0 0 0 0
0 0 0 0 0 0 0 0 0 0 0 0 0 0 0 0 0 0 0 0 0 0 0 0 0 0 0 0 0 0 0 0 0 0 0 0 0 0 0 0 0 0 0
0 0 0 0 0 0 0 0 0 0 0 0 0 0 0 0 0 0 0 0 0 0 0 0 0 0 0 0 0 0 0 0 0 0 0 0 0 0 0 0 0 0 0
Wind_Speed
13 12 12 12 10 11 10 11 12 11 12 13 12 11 11 9 8 8 7 8 9 7 6 7 6 5 4 3 3 3 3 3 4 3 3 2 3 4 5 5 6 6 8
13 12 13 12 12 13 12 11 11 12 12 12 12 11 11 10 9 10 10 9 9 10 8 7 7 5 5 4 4 4 4 4 4 4 3 3 5 4 5 6 6 6 6
13 14 14 14 15 15 14 13 12 12 12 11 12 12 12 11 10 9 9 9 9 9 9 9 8 8 7 5 5 5 4 4 4 5 4 3 4 4 5 6 6 5 7
14 15 16 16 16 15 14 14 13 13 13 13 12 11 11 10 10 9 9 8 7 7 7 7 8 9 8 7 6 6 5 5 5 5 5 4 4 4 4 5 7 5 7
15 16 16 14 14 14 14 14 14 13 13 12 11 10 9 9 10 10 9 9 8 7 6 7 7 10 11 9 7 7 7 6 5 5 5 4 5 3 3 3 7 10 9
17 16 13 14 14 15 15 14 14 13 12 12 12 12 11 10 16 19 12 9 8 9 8 7 7 8 12 16 16 14 12 8 7 5 6 7 8 4 3 5 6 8 7
15 13 13 15 16 16 15 15 16 15 13 13 12 12 12 14 20 20 18 9 9 8 8 7 7 7 9 8 12 17 15 18 17 9 9 10 7 5 4 7 7 8 9
14 13 14 15 15 14 15 16 15 13 13 13 13 13 11 13 20 20 18 10 7 8 8 8 9 8 9 9 8 9 10 11 12 9 9 9 6 5 6 7 7 6 8
15 15 14 14 15 15 16 16 12 12 12 11 11 12 11 12 19 19 17 7 7 9 8 8 9 9 13 15 10 9 11 11 14 18 19 16 17 16 11 3 2 3 7
14 12 11 12 14 15 14 12 8 9 10 10 9 10 10 9 16 19 18 6 8 8 7 8 12 14 15 16 11 9 12 11 6 7 10 12 10 9 12 6 4 4 4
8 9 10 10 10 10 9 8 9 8 8 8 8 7 8 8 13 19 19 9 9 8 8 8 8 17 19 19 17 11 16 12 6 7 6 6 5 4 5 5 5 5 5
9 9 9 9 8 8 10 9 9 10 10 9 8 7 6 7 10 15 21 20 15 10 10 7 8 15 17 19 15 16 19 14 5 5 5 6 5 6 5 6 7 7 7
9 9 9 9 8 9 10 10 9 9 8 8 8 8 7 6 9 18 20 22 22 13 9 13 14 16 15 13 15 17 11 6 5 6 7 6 5 5 4 4 5 5 7
9 8 8 9 8 8 7 8 8 9 9 8 8 8 7 6 7 7 8 9 14 14 9 7 11 13 11 9 6 7 5 4 6 7 6 4 3 3 4 4 3 3 3
8 8 8 7 8 7 6 6 7 6 8 9 8 7 8 8 10 14 9 7 7 7 4 1 2 2 4 4 3 3 3 3 4 4 4 3 3 4 4 4 3 3 3
7 6 5 5 5 5 5 3 5 5 8 10 9 7 5 8 9 13 15 15 14 12 7 4 4 4 5 4 3 3 2 3 4 4 4 4 4 4 4 4 3 4 4
6 6 5 5 5 5 5 6 4 3 4 5 7 8 8 8 9 10 10 9 9 9 6 4 3 3 2 2 2 2 3 3 3 3 4 4 4 4 4 4 4 4 4
6 5 5 4 4 4 4 4 4 5 4 1 1 2 4 6 6 6 7 5 2 2 2 3 3 2 2 2 2 2 3 2 2 2 3 3 3 3 3 4 4 4 4
5 4 4 4 4 4 4 4 3 4 4 3 2 3 4 3 4 3 3 2 2 2 2 2 2 1 1 1 2 2 2 2 2 2 2 3 3 3 3 4 4 5 4
5 6 5 4 4 4 3 4 3 4 4 3 3 2 1 2 2 2 2 2 2 2 2 2 1 1 1 1 1 1 2 2 2 2 2 3 3 3 4 5 4 4 4
5 5 6 5 4 3 3 3 3 3 3 3 2 2 5 3 2 2 2 2 2 2 2 2 2 2 2 2 2 2 3 3 3 3 3 3 3 3 4 4 4 4 4
4 4 4 4 4 4 3 3 3 3 3 3 2 0 3 3 2 2 2 2 2 2 2 2 2 2 3 3 3 3 3 4 4 3 3 3 3 4 4 4 4 4 4
5 5 5 4 4 5 4 3 3 3 2 2 2 1 1 1 1 1 2 2 2 2 2 2 3 3 3 3 4 4 4 5 4 4 4 4 4 4 4 4 5 5 5
5 5 5 4 4 3 3 2 2 2 2 1 1 1 1 1 2 2 2 2 2 2 3 3 4 5 6 5 4 4 5 5 5 4 6 5 5 4 4 4 5 6 5
4 4 4 3 3 2 2 2 1 1 1 1 2 2 2 2 3 3 3 3 3 4 5 5 4 5 7 8 6 6 7 9 7 5 5 5 6 5 5 6 5 5 5
3 3 2 2 1 1 1 1 1 2 2 2 3 3 3 3 4 4 3 4 4 4 5 5 6 7 8 7 8 9 10 11 11 10 7 5 6 6 6 5 6 6 6
Wind_Direction
180 178 175 177 173 170 175 173 167 161 160 164 161 157 156 155 152 148 149 151 145 143 146 148 148 147 145 146 144 149 159 161 213 262 257 257 263 265 292 287 286 289 303
179 177 177 175 174 176 178 174 169 167 167 166 162 161 162 163 162 162 161 163 160 161 163 159 161 159 162 164 168 178 184 187 201 249 265 258 254 257 276 287 297 300 298
178 178 179 180 181 182 180 174 173 170 168 167 167 169 170 169 170 172 169 171 173 171 170 172 173 170 180 181 186 193 196 203 204 231 261 255 264 265 289 289 285 278 295
182 184 186 187 186 183 178 177 177 174 173 175 176 174 172 171 173 173 174 175 176 176 177 180 179 185 190 187 195 202 199 207 213 233 254 261 261 263 278 304 313 310 310
187 192 193 185 182 179 178 178 177 178 179 176 173 171 170 174 179 178 179 178 179 181 187 192 195 200 203 199 202 200 198 208 213 229 251 263 266 270 281 296 307 314 310
193 196 186 179 180 181 180 177 177 178 176 174 178 177 179 187 191 190 182 182 184 189 197 202 204 209 219 222 225 221 210 206 209 217 242 254 265 258 263 283 300 312 311
195 190 183 180 182 182 178 177 181 181 176 179 181 181 187 195 195 195 194 184 190 198 201 201 208 213 210 223 236 240 237 236 227 218 239 249 257 250 261 279 279 282 282
193 190 185 182 181 177 178 183 183 179 181 183 184 187 188 198 198 198 196 190 198 208 209 207 212 214 209 212 223 236 242 245 244 244 246 254 250 245 244 263 279 288 285
194 193 186 180 178 178 183 185 181 176 181 184 182 183 189 198 201 201 196 191 209 222 219 215 218 222 227 225 224 236 249 252 253 249 249 254 258 262 260 257 269 295 295
194 186 177 177 179 183 183 177 170 173 177 175 179 184 189 193 202 204 203 196 216 227 224 223 226 229 235 234 229 230 248 255 240 248 254 259 261 263 264 251 226 235 262
165 159 164 171 173 170 164 158 156 157 159 166 171 177 188 194 207 209 210 206 217 226 230 230 229 238 241 240 237 234 246 256 245 239 244 242 236 231 231 226 220 224 236
144 150 155 157 155 153 154 153 155 159 165 171 175 184 196 197 205 217 220 223 220 224 234 233 230 242 246 248 247 249 257 260 250 241 242 241 235 230 225 221 225 233 241
137 144 147 147 149 154 157 158 159 167 174 181 187 199 205 201 214 220 225 230 233 230 234 239 242 247 251 253 255 258 260 252 247 246 247 246 232 223 210 216 228 241 255
135 137 141 146 148 151 155 161 168 176 183 187 194 205 206 200 203 209 217 228 236 241 244 246 253 256 255 252 253 258 251 244 245 253 259 249 204 197 209 209 219 227 255
131 135 141 146 151 155 157 170 176 184 191 191 198 198 200 210 213 207 203 211 213 222 216 211 211 224 235 241 244 240 238 242 250 254 254 245 227 223 225 213 216 211 231
128 134 138 140 142 145 146 135 178 172 195 208 206 198 206 215 214 215 217 219 221 219 209 210 220 222 228 233 240 247 238 245 253 253 248 244 242 239 238 221 216 220 244
125 130 129 133 139 144 149 154 149 146 164 187 201 201 199 201 206 205 205 202 205 205 206 201 206 210 218 228 239 247 254 256 255 252 250 243 243 244 240 235 232 236 248
100 109 118 128 136 144 151 154 155 158 155 121 46 151 173 176 178 184 188 175 181 188 188 189 189 187 194 212 235 250 259 261 252 255 256 251 240 237 238 239 237 239 251
84 88 92 98 103 113 121 125 129 140 144 140 97 50 41 101 109 111 109 136 162 166 158 148 150 156 181 221 245 252 256 256 259 259 255 250 240 232 239 242 243 247 248
67 78 85 93 96 101 109 120 128 134 139 146 153 149 74 73 83 64 58 90 119 140 148 157 165 181 200 227 249 255 260 258 259 253 252 250 241 235 243 244 241 242 242
70 72 77 82 84 93 101 112 122 129 137 140 149 184 168 137 142 140 138 139 150 163 171 181 196 212 221 227 231 240 245 249 246 244 245 243 236 235 239 244 246 244 250
73 73 72 79 81 82 86 91 101 112 125 131 121 53 133 117 133 148 161 173 180 188 188 192 209 217 217 219 221 227 235 240 240 239 243 242 236 235 237 239 243 247 245
73 77 74 70 73 82 79 77 87 101 112 121 128 116 91 125 162 186 202 209 210 213 208 208 223 236 234 230 224 219 226 233 229 223 229 235 234 231 227 233 238 241 243
67 75 80 79 76 79 87 89 91 103 117 133 152 183 201 205 220 230 230 231 233 234 229 224 230 239 245 242 234 230 233 238 230 223 222 228 231 229 225 231 237 239 247
66 71 77 82 87 92 99 107 117 135 169 197 212 225 230 231 235 241 240 239 243 245 245 238 236 241 246 247 244 241 247 254 247 222 212 217 227 226 226 231 234 237 241
63 70 75 84 98 121 151 186 210 219 225 230 232 234 237 240 243 244 242 240 243 246 248 242 239 243 247 249 251 252 249 249 242 229 209 209 217 224 221 229 231 234 240